CAPE
0 6 13 0 0 0 0 0 0 0 0 0 0 0 0 0 0 0 0 0 0 0 0 0 0 0 0 0 0 0 0 0 0 1 0 0 0 27 618 974 1937 2332 2554 2735 2504 2560 2451 2533 2355 2346 2347 2346 2403 2401 2046 2112 2060 1841 1704 1587 1240 1058 1176 1249 1143 933 1250 1250 1434 1401 1077 1237 1224 1035 1320 1771 1568 1642 1473 1430 964 1430 1670 1794 1722 1427
0 22 10 0 0 0 0 0 0 0 0 0 0 0 0 0 0 0 0 0 0 0 0 0 0 0 0 0 0 0 0 0 25 46 4 0 0 71 440 1057 1760 2201 2362 2465 2406 2747 2374 2384 2456 2159 2347 2444 2392 2162 2019 2132 2138 1853 1771 1635 1435 900 1244 1182 1109 1112 1409 1488 1377 1403 1090 1115 1458 1325 1450 1438 1531 1437 1760 1659 1458 1034 1169 1265 1195 1173
12 12 2 0 0 0 0 0 0 0 0 0 0 0 0 0 0 0 0 0 0 0 0 0 0 0 0 0 0 0 0 0 38 45 1 0 11 100 257 1201 1854 2008 2534 2468 2492 2652 2418 2378 2228 2336 2460 2466 2395 2292 2102 2076 2131 1896 1705 1624 1432 1166 1212 1168 1239 1328 1368 1295 1288 1144 1008 1318 1568 1715 1904 1742 1000 1078 1233 1520 1046 954 682 701 650 798
18 6 1 0 0 0 0 0 0 0 0 0 0 0 0 0 0 0 0 0 0 0 0 0 0 0 0 0 0 0 0 0 15 32 5 0 24 164 260 1464 2026 2293 2025 2315 2139 2479 2426 2172 2340 2430 2592 2573 2523 2378 1848 1961 1981 1768 1622 1458 1418 1175 1354 1284 1449 1344 1384 1443 1309 767 1551 1486 1514 1839 1393 1212 1506 1917 1302 875 1006 1025 764 821 1117 708
28 1 0 4 1 0 0 0 0 0 0 0 0 0 0 0 0 0 0 0 0 0 0 0 0 0 0 0 0 0 0 0 0 31 9 0 72 294 476 861 1392 2094 2477 2617 2469 2298 2435 2226 2270 2482 2454 2511 2530 2233 1941 1835 1912 1674 1520 1466 1304 1312 1501 1421 1459 1470 1334 1470 1319 1432 1645 1402 1096 1142 1116 929 861 1050 1142 791 893 863 733 615 760 709
5 3 1 1 1 1 3 0 0 0 0 0 0 0 0 0 0 0 0 0 0 0 0 0 0 0 0 0 0 0 0 0 0 6 2 0 73 313 276 290 985 2371 2594 2585 2621 2420 2142 2307 2310 2440 2430 2504 2444 2212 2187 1911 1953 1646 1559 1548 1369 1507 1654 1578 1549 1574 1592 1719 1374 1316 1280 1025 848 773 1286 1100 950 1148 878 769 665 741 465 517 486 611
0 0 4 23 8 12 2 2 0 0 0 0 0 0 0 0 0 0 0 0 0 0 0 0 0 0 0 0 0 0 0 0 0 18 13 29 249 272 86 58 360 1037 1994 2402 2514 2420 2293 2335 2422 2390 2237 2390 2279 2292 2102 1938 1802 1556 1277 1364 1644 1862 1597 1526 1645 1653 1674 1701 1531 1579 1454 1327 880 799 1410 825 1272 820 522 433 373 475 502 420 344 382
0 8 3 19 8 8 3 13 1 0 2 1 0 0 0 0 0 0 0 0 0 0 0 0 0 0 0 0 0 0 0 0 0 22 167 236 345 373 239 178 733 1306 642 1953 2491 2469 2389 2427 2342 2384 2361 2217 2278 2047 2144 1844 1480 1216 1299 1901 1952 1809 1677 1721 1614 1912 1520 1726 1419 1245 1248 1147 1102 656 845 802 957 556 376 242 409 478 463 375 310 203
0 0 1 4 5 6 2 0 4 0 0 0 0 0 0 0 0 0 0 0 0 0 0 0 0 0 0 0 0 0 0 0 0 8 44 79 185 433 645 687 936 784 994 2080 2495 2379 2332 2411 2352 2409 2359 2224 2148 2073 1919 2007 1409 1155 1372 1116 1249 1845 1836 1600 1658 1506 1148 1275 1135 1134 1196 1097 1625 1230 855 644 548 323 330 318 429 466 370 361 285 53
0 4 3 3 1 8 1 0 2 0 0 0 0 0 0 0 0 0 0 0 0 0 0 0 0 0 0 0 0 0 0 0 0 0 2 0 0 114 440 528 662 1294 1865 2040 2348 2405 2280 2219 2397 2304 2304 2205 2206 1952 1954 1734 1484 951 1098 1165 1372 1446 1578 1359 1401 1102 801 987 1017 925 1369 1324 1119 860 618 382 299 267 255 372 423 387 349 291 225 65
0 2 3 2 3 5 10 5 0 0 0 0 0 0 0 0 0 0 0 0 0 0 0 0 0 0 0 0 0 0 0 0 0 0 13 19 36 133 317 539 628 1432 1883 1969 2128 2427 2378 2305 2297 2202 2287 2070 2008 1828 1898 1754 1362 1109 1199 1155 1278 1268 1184 1217 1080 868 979 856 925 936 1112 862 937 716 560 415 103 37 16 428 418 352 329 77 0 46
7 8 6 7 1 7 6 1 2 0 0 0 0 0 0 0 0 0 0 0 0 0 0 0 0 0 0 0 0 0 0 0 0 0 28 83 101 273 520 661 594 1068 1666 1937 2023 2323 2209 2169 2331 2304 2227 2140 1702 1914 1832 1585 1643 1423 1157 1174 1189 1156 1097 1094 1092 983 791 915 712 814 923 993 878 735 544 408 149 43 14 391 387 310 169 23 39 49
7 7 17 2 18 23 5 5 10 0 0 0 8 0 0 1 0 0 0 0 0 0 0 0 0 0 0 0 0 0 0 0 0 0 2 32 110 291 257 389 820 1142 1696 1985 1898 2259 2197 2166 2268 2271 2230 2069 1616 1650 1694 1731 1742 1659 1464 1258 1136 944 1057 1103 948 1013 796 1088 784 691 835 982 839 748 591 451 306 18 35 288 342 244 155 58 59 65
164 51 1 0 2 13 16 5 5 1 0 0 11 5 0 0 0 0 0 0 0 0 0 0 0 0 0 0 0 0 0 0 0 0 0 1 138 147 188 515 514 1008 1586 2022 2078 2245 2082 2054 2326 2250 2248 2054 1683 1650 1666 1561 1648 1671 1556 1224 822 960 1167 1089 1068 1103 1224 1034 902 1043 1055 1156 1047 703 534 403 270 299 331 254 291 178 124 76 89 80
140 33 12 1 6 4 11 3 3 0 0 0 2 0 0 0 0 0 0 0 0 0 0 0 0 0 0 0 0 0 9 0 0 0 0 0 27 24 81 421 897 1340 1544 1974 2090 2318 2118 2098 2288 2207 2198 2019 1679 1707 1649 1468 1491 1517 1507 915 950 1137 1285 1233 1264 1314 888 784 858 921 1138 1070 863 664 501 356 414 380 319 269 218 122 52 78 63 64
60 24 5 0 0 0 2 4 6 0 0 0 4 0 0 0 0 0 0 0 0 0 0 0 0 0 0 0 0 0 0 0 0 0 0 0 2 0 25 422 708 1006 1805 2066 2296 2358 2323 2104 2025 2083 2218 1784 1573 1708 1621 1514 1470 1472 1472 872 954 1206 1158 1428 1478 1207 1091 950 867 789 1090 790 612 503 527 444 477 402 332 181 179 120 110 72 62 53
5 26 1 0 1 0 0 2 1 1 9 0 7 5 0 0 0 0 0 0 0 0 0 0 0 0 0 0 0 0 0 0 0 0 0 0 0 0 32 273 915 1601 1971 2268 2445 2422 2512 2123 2104 2124 2175 1788 1599 1671 1564 1491 1487 1507 1457 1022 1099 1234 1488 1512 1420 1437 949 853 997 1069 1066 604 556 523 557 521 496 361 265 133 125 156 106 80 56 48
36 75 1 0 0 0 1 0 3 0 0 1 1 0 0 0 0 0 0 0 0 0 0 0 0 0 0 0 0 0 0 0 0 0 0 0 0 0 48 407 1317 1712 1988 2390 2394 2392 2381 2071 2025 2088 2191 1901 1605 1605 1541 1514 1441 1563 1207 1450 1491 1355 1438 1546 1388 1351 1038 1120 1166 1074 778 657 616 565 535 530 475 353 151 45 82 154 112 79 56 36
1 27 27 0 0 0 0 0 2 4 4 3 0 0 5 39 22 0 0 0 0 0 0 0 0 0 0 0 0 0 0 0 0 0 0 0 0 3 183 493 1316 2020 2451 2423 2319 2458 2428 2140 2068 2118 2180 2104 1652 1601 1541 1450 1396 1559 1265 1578 1459 1332 1392 1387 1581 1636 1298 1284 1207 900 803 748 620 554 562 518 400 199 23 61 92 116 95 61 35 38
0 128 35 0 0 0 0 2 0 4 0 0 0 0 0 14 4 6 0 0 0 0 0 0 0 0 0 0 0 0 0 0 0 0 0 0 0 7 83 507 994 1198 1511 1350 2308 2606 2523 2311 2005 2252 2230 2041 1651 1534 1485 1364 1442 1581 1301 1189 1423 1283 1323 1364 1480 1578 1422 1189 920 759 778 712 574 528 532 496 217 60 108 104 86 95 65 65 2 33
94 61 2 0 0 0 1 0 7 0 3 6 0 4 6 28 4 19 8 0 0 0 0 0 0 0 0 0 1 0 0 0 0 0 0 0 0 66 475 1169 1230 950 727 1897 2420 2608 2644 2454 2050 2090 2156 2095 1915 1562 1435 1405 1411 1506 1442 1436 1316 1531 1422 1572 1588 1514 1379 1059 857 739 677 694 640 571 496 380 82 192 106 106 107 64 82 54 1 18
4 4 3 0 0 0 0 0 1 0 0 0 0 0 0 4 9 6 16 0 0 0 0 0 1 0 0 0 2 0 0 0 60 62 94 166 135 132 460 389 414 480 879 2422 2618 2688 2672 2386 1964 1921 2115 2123 1775 1541 1467 1426 1404 1506 1446 1475 1571 1496 1321 1519 1563 1330 1134 1100 599 585 691 708 688 557 439 274 128 185 127 124 89 56 87 49 47 42
74 25 0 0 0 0 0 3 0 5 0 1 0 0 1 20 9 0 15 0 0 0 0 0 0 0 0 0 0 0 0 0 6 9 0 40 178 302 282 678 268 369 1273 2512 2565 2654 2556 2266 2016 1996 2152 2144 1910 1530 1458 1396 1391 1493 1465 1617 1644 1543 1436 1556 1474 1289 1133 763 500 527 660 736 669 589 391 274 142 196 144 120 103 0 42 0 2 0
0 44 72 5 1 0 10 2 0 2 2 9 0 0 2 8 8 3 12 5 0 0 0 0 0 0 0 0 0 0 0 0 0 0 0 61 97 39 68 868 1264 1254 2216 2362 2458 2610 2497 2170 1987 1995 2102 1947 1755 1776 1489 1366 1420 1503 1521 1696 1542 1600 1579 1400 1378 1065 946 733 548 552 730 785 575 474 293 227 218 177 164 117 0 65 80 0 0 0
13 86 16 15 10 8 0 2 7 4 2 5 2 6 8 2 6 27 12 22 0 13 2 4 1 2 3 0 0 0 0 0 0 0 0 2 14 271 728 872 746 1155 2154 2321 2554 2520 2355 2013 1936 2003 1949 1852 1831 1681 1744 1398 1496 1426 1489 1661 1608 1629 1529 1248 1116 871 734 555 606 749 790 726 549 332 351 295 138 209 111 29 119 174 117 0 0 0
24 6 1 63 0 1 11 26 4 16 2 1 1 5 9 0 15 35 4 7 0 14 11 11 0 2 0 0 1 0 0 0 0 0 0 0 32 347 93 278 517 1857 2341 2402 2548 2396 2125 1785 1645 2060 2088 1891 1783 1619 1536 1564 1363 1405 1484 1680 1485 1405 1362 1368 933 846 549 564 760 831 791 705 509 309 316 274 222 164 36 98 210 147 0 0 0 0
71 2 5 17 37 0 0 0 0 0 0 3 0 0 0 0 2 18 41 4 0 7 2 32 16 0 1 0 0 0 1 6 95 0 0 26 463 968 1391 948 1530 2454 2477 2434 2354 2262 1897 1753 1777 1918 2074 1932 1669 1604 1706 1408 1400 1436 1401 1537 1521 1460 1373 1094 890 700 470 586 777 786 770 682 388 334 333 254 251 165 16 129 169 0 0 0 0 0
5 10 8 18 0 0 0 0 0 0 0 0 0 0 0 0 3 6 18 3 18 3 4 2 5 1 0 0 0 0 0 0 113 341 436 945 896 1362 1580 1752 2253 2426 2238 2236 2275 2096 1914 1792 1902 2078 2102 1722 1602 1540 1630 1355 1297 1412 1349 1478 1617 1208 1062 904 770 594 534 662 733 770 706 610 354 376 317 178 192 154 100 107 0 0 0 0 0 0
28 4 15 0 0 0 19 27 25 0 7 3 1 3 2 0 8 28 2 28 7 4 0 0 0 0 0 2 20 0 0 0 105 520 854 901 1040 1223 595 1371 1992 2041 1950 2054 2106 1958 1726 1705 1958 2030 2001 1676 1623 1511 1412 1498 1289 1603 1272 1512 1236 1017 882 815 711 600 575 640 679 741 649 570 404 404 354 246 214 173 94 15 0 0 0 0 0 0
52 9 18 2 2 6 1 1 1 3 2 2 1 2 6 0 0 16 26 25 8 97 1 0 0 0 1 28 288 644 430 71 252 433 823 923 946 1167 1445 1819 1869 1947 1936 1886 1863 1846 1713 1742 1958 1907 1874 1582 1532 1463 1380 1302 1275 1271 1238 1505 1128 989 899 811 732 554 544 553 675 689 605 511 468 394 290 259 175 120 67 4 1 0 0 0 0 0
20 21 1 2 0 0 6 5 1 3 15 20 1 2 0 0 0 2 21 43 8 4 2 0 0 0 167 410 1180 1396 1271 1131 871 625 889 699 1202 1403 1674 1880 1806 1728 1648 1731 1716 1632 1611 1794 1930 1865 1607 1513 1480 1465 1569 1456 1256 1237 1304 1235 1134 1055 912 855 782 637 452 506 580 600 556 493 409 376 262 268 191 0 12 54 0 2 0 0 0 0
4 7 1 53 6 5 2 22 1 16 10 13 15 5 0 2 2 6 9 2 4 7 4 0 0 0 82 269 1262 1312 1343 1358 1385 1292 1311 1198 1450 1629 1676 1768 1834 1846 1735 1647 1548 1720 1835 1890 1871 1678 1495 1448 1420 1344 1513 1523 1188 1184 1034 1074 1112 1130 994 906 794 724 525 440 509 527 552 467 404 335 280 252 201 42 84 67 35 2 0 0 0 0
75 107 4 3 4 0 1 8 37 27 39 30 24 7 1 0 0 0 0 0 0 12 4 0 112 349 397 247 695 1273 1383 1452 1321 1284 1496 1518 1220 1118 1622 1820 1936 1877 1758 1698 1829 1833 1846 1892 1730 1568 1470 1382 1362 1241 1239 1115 1160 1133 1091 1020 1130 1218 1047 912 801 774 701 597 638 576 658 598 514 427 350 255 217 69 139 124 68 8 0 2 0 0
151 58 62 3 0 8 9 27 29 33 19 3 2 23 9 14 4 0 0 0 0 0 12 0 176 273 246 236 414 752 1527 1181 1296 1360 1423 1502 1500 1366 1450 1598 1654 1224 1490 1737 1720 2024 1901 1613 1542 1495 1478 1386 1277 1138 1097 1048 1192 1218 974 966 1083 1194 1103 974 861 803 742 640 466 580 628 574 576 547 372 271 203 139 169 170 139 24 1 2 0 0
94 54 8 0 9 1 0 1 11 7 10 62 32 8 0 0 0 0 0 0 0 0 0 0 0 0 376 377 535 567 1263 1162 1305 1430 1264 1215 1259 1340 1443 1346 1026 1469 1797 1833 1853 1764 1821 1570 1331 1379 1438 1260 1144 1218 1094 1066 1188 1012 875 904 1020 1141 1133 1029 914 776 669 420 497 506 425 486 510 518 391 272 201 230 193 183 194 35 2 2 0 0
31 2 44 16 3 0 0 8 0 2 151 24 33 12 0 0 0 0 0 0 0 0 0 0 0 0 171 542 645 968 1016 1128 1216 967 1360 1328 1287 1400 1431 1488 1450 1637 1747 1810 2005 1910 1786 1438 1265 1382 1237 1209 1146 1065 934 1118 1226 1105 958 897 981 1210 1197 1118 993 813 614 602 542 502 443 368 383 354 254 216 244 189 212 261 229 32 1 1 2 0
188 263 75 6 6 8 0 3 2 39 25 8 0 14 0 0 0 0 0 0 0 0 0 0 0 0 234 409 739 923 1087 926 1266 733 1314 1456 1345 1292 1522 1692 1524 1860 1935 1889 1910 1838 1721 1353 1291 1284 1090 1028 997 1060 900 1112 1229 1163 1002 910 1003 1105 1155 1171 1052 794 718 650 657 568 485 317 223 0 64 260 195 210 237 235 243 22 1 2 0 0
134 162 12 7 0 2 0 17 10 16 0 0 1 0 0 0 0 0 0 0 0 0 14 44 5 114 352 433 883 1132 1053 1128 815 1306 1677 1719 1630 1413 1582 1542 1660 1723 1848 2043 1901 1570 1451 1346 1161 1200 957 958 1125 1115 939 1095 1150 1098 1005 943 975 1000 1090 1084 970 904 867 770 741 711 549 286 103 339 392 315 87 48 251 290 262 36 10 0 1 0
166 34 15 4 0 0 12 9 2 2 51 2 0 0 0 4 1 0 0 1 0 28 104 50 1 81 304 539 1278 1274 1189 944 591 899 1651 1732 1668 1605 1708 1905 1786 1827 1723 1760 1915 1603 1437 1372 1028 1067 1100 1026 1008 1027 954 999 1044 1022 1068 918 913 940 912 935 934 950 960 887 829 726 511 356 293 305 245 47 56 66 82 70 34 3 1 0 0 0
137 14 5 21 3 12 1 18 32 1 30 262 172 104 88 3 81 57 0 17 276 107 115 4 39 516 897 1090 1111 940 860 456 801 1023 1633 1609 1742 1728 1704 1667 1985 1970 1896 1834 1803 1684 1437 1191 1052 1039 1116 1162 1242 1241 1167 957 1000 998 976 1095 1059 970 1004 987 963 929 909 850 820 692 577 506 420 338 284 239 277 253 231 194 2 3 2 2 0 32
20 10 0 0 0 0 0 4 41 87 361 538 222 33 0 59 36 0 0 370 467 232 161 74 406 913 1150 1036 1225 437 1234 1654 1098 1008 1630 1432 1480 1485 1728 1741 1953 2039 1951 1938 1631 1354 1378 1047 955 814 805 984 1095 1231 1184 931 856 1011 1170 1175 964 861 928 1000 993 899 922 835 798 680 529 422 399 389 343 326 311 300 301 280 161 1 2 43 33 7
6 2 3 1 2 0 1 0 12 40 265 508 149 39 19 0 0 4 406 567 649 625 744 813 1496 1292 1087 866 1089 1305 1522 1244 1551 1543 1630 1703 1750 1674 1444 1629 1574 1764 1946 1654 1444 1190 1340 1209 1061 900 794 844 691 707 753 795 850 960 883 810 802 792 798 791 786 821 844 655 592 495 452 410 389 334 308 302 317 317 51 210 115 0 144 0 56 0
185 107 34 1 1 1 1 3 0 20 193 431 99 98 48 0 221 420 982 940 1217 1133 1299 1489 1496 1218 1002 1396 1399 1667 1590 1512 1466 1562 1496 1747 1773 1771 1773 1557 1918 1721 1547 1570 1497 1265 1118 1030 1039 933 911 811 666 740 762 967 986 926 802 619 586 618 666 596 651 770 588 0 344 346 351 346 250 216 112 65 41 191 61 88 107 58 37 60 8 0
212 29 2 82 309 1 24 4 83 229 465 421 335 140 581 572 289 377 636 1160 1124 1296 1437 1504 1472 1394 1149 1377 1588 1601 1602 1244 1067 1543 1586 1764 1891 1578 1819 1785 1747 1810 1736 1326 1207 1290 1116 1154 1125 1050 868 670 681 765 898 1018 990 803 561 477 454 550 563 505 607 746 604 278 196 30 167 169 171 189 181 172 102 23 17 2 1 0 0 0 0 0
118 75 39 199 382 122 27 256 398 501 804 640 584 680 1085 1048 809 560 443 619 1006 1180 1312 1271 1142 1238 1505 1638 1689 1596 1444 1290 1492 1663 1763 1753 1745 1770 1726 1785 1645 1687 1653 1422 1452 1124 1113 1012 1071 1052 894 724 795 618 870 902 712 578 568 443 424 458 390 386 392 411 485 413 306 263 246 214 189 206 221 180 113 34 0 0 23 5 0 0 0 0
128 149 220 294 87 151 379 524 446 548 672 727 670 707 686 674 568 568 722 854 861 1014 1372 1554 1511 1615 1496 1467 1442 1493 1452 1306 1184 1544 1469 1542 1429 1632 1582 1530 1764 1798 1451 1228 1284 1149 1348 1200 907 887 908 792 680 634 596 501 534 584 532 500 434 392 472 377 352 422 468 420 327 288 272 262 251 221 192 145 92 33 9 0 38 0 0 0 0 0
28 86 155 68 132 103 54 26 554 484 524 532 408 354 422 534 470 394 682 675 691 995 1155 1249 1346 1566 1515 954 830 877 1501 1536 1338 1196 1301 1447 1653 1524 1713 1729 1827 1795 1578 1300 1268 1147 1105 1025 1038 742 679 560 601 500 556 561 493 533 478 480 464 490 516 528 358 346 398 463 425 385 342 266 265 219 39 67 83 70 36 10 56 0 0 0 0 0
50 8 86 89 86 150 353 306 203 553 591 598 580 625 503 372 334 497 534 549 713 876 967 942 934 836 892 885 851 840 1420 1458 1266 1266 1193 857 1488 1576 1482 1488 1557 1501 1553 1424 1180 1128 1183 1144 1088 950 722 618 665 644 624 599 665 720 630 665 620 600 575 514 372 317 391 430 459 326 288 272 246 230 160 49 99 100 88 55 54 42 45 0 0 21
7 221 10 70 202 58 172 101 95 297 392 386 500 605 405 359 579 738 722 536 440 361 357 564 780 976 1138 992 684 868 1074 1210 1091 840 1016 1380 1196 1430 1691 1574 1603 1585 1596 1373 1089 1149 1228 1021 1278 1119 1015 722 625 731 793 696 593 589 715 817 820 740 598 452 280 235 317 381 397 332 333 342 316 250 217 166 110 121 50 95 76 51 34 1 40 46
126 29 50 81 54 76 78 142 298 38 133 140 293 528 669 574 393 550 488 382 420 596 412 382 387 639 1047 1082 799 719 801 1080 1351 1332 983 1234 1308 1245 1342 1419 1376 1247 1359 1162 938 1224 1079 963 1118 1308 995 831 663 675 835 784 679 710 871 914 842 789 709 627 427 269 252 289 366 394 404 377 241 109 120 155 155 55 96 115 49 12 1 26 24 26
39 446 452 110 67 58 140 64 425 325 352 457 577 446 356 287 446 480 444 516 584 780 916 848 537 528 650 960 1101 1138 1244 1330 1464 1441 1317 1315 1489 1322 1158 1278 1416 1373 1163 1071 999 1246 848 799 848 1076 946 722 624 745 846 836 806 808 824 883 874 761 752 721 586 440 320 280 307 388 396 268 116 71 100 122 80 36 44 52 74 26 43 68 93 86
Wind_Speed
nan nan nan nan nan nan nan nan nan nan nan nan nan nan nan nan nan nan nan nan nan nan nan nan nan nan nan nan nan nan nan nan nan nan nan nan nan nan 37 35 33 31 34 37 36 34 29 27 27 24 25 26 24 25 28 26 27 30 32 32 31 30 31 30 30 29 27 27 27 27 26 27 28 27 28 28 28 28 28 28 26 29 29 28 29 26
nan nan nan nan nan nan nan nan nan nan nan nan nan nan nan nan nan nan nan nan nan nan nan nan nan nan nan nan nan nan nan nan nan nan nan nan nan nan 35 33 31 33 38 38 35 33 26 25 25 21 22 22 21 21 24 27 27 29 33 31 32 31 30 30 29 29 27 27 28 28 27 26 27 28 26 26 31 24 29 27 28 32 30 33 28 25
nan nan nan nan nan nan nan nan nan nan nan nan nan nan nan nan nan nan nan nan nan nan nan nan nan nan nan nan nan nan nan nan nan nan nan nan nan 34 35 35 33 36 41 35 30 28 23 23 21 17 19 19 19 21 24 27 28 31 31 31 33 31 31 30 30 30 29 28 28 27 28 28 28 27 25 29 31 23 26 31 33 31 31 30 27 25
nan nan nan nan nan nan nan nan nan nan nan nan nan nan nan nan nan nan nan nan nan nan nan nan nan nan nan nan nan nan nan nan nan nan nan nan nan 33 35 39 38 38 37 31 25 24 22 21 20 17 19 20 19 22 24 27 29 31 31 31 32 31 30 30 30 30 30 29 30 30 30 29 30 28 27 28 28 30 30 34 33 34 34 32 29 26
nan nan nan nan nan nan nan nan nan nan nan nan nan nan nan nan nan nan nan nan nan nan nan nan nan nan nan nan nan nan nan nan nan nan nan nan nan 33 35 39 43 39 35 29 26 24 23 21 19 19 21 20 20 22 24 27 29 32 33 34 31 32 31 31 32 30 31 31 31 31 30 28 33 30 26 29 28 29 32 35 34 33 34 34 32 30
nan nan nan nan nan nan nan nan nan nan nan nan nan nan nan nan nan nan nan nan nan nan nan nan nan nan nan nan nan nan nan nan nan nan nan nan nan 32 34 37 40 40 33 26 25 25 23 23 22 22 22 20 21 23 25 29 32 36 38 32 28 30 31 32 33 31 31 29 29 29 29 29 30 30 27 26 30 31 33 36 35 34 33 33 34 31
nan nan nan nan nan nan nan nan nan nan nan nan nan nan nan nan nan nan nan nan nan nan nan nan nan nan nan nan nan nan nan nan nan nan nan nan 32 34 nan nan 38 35 30 24 25 26 26 26 25 23 22 22 22 25 28 33 38 41 35 28 27 31 33 32 31 31 30 30 28 28 28 29 29 32 26 27 29 33 35 35 35 34 33 33 33 33
nan nan nan nan nan nan nan nan nan nan nan nan nan nan nan nan nan nan nan nan nan nan nan nan nan nan nan nan nan nan nan nan nan nan 29 30 32 34 34 36 36 33 28 24 26 28 29 29 25 23 24 24 26 31 35 40 47 41 30 25 25 30 33 30 28 29 29 29 29 30 29 28 29 30 27 32 32 35 35 34 34 33 34 34 33 32
nan nan nan nan nan nan nan nan nan nan nan nan nan nan nan nan nan nan nan nan nan nan nan nan nan nan nan nan nan nan nan nan nan nan nan nan 31 33 33 33 34 30 26 24 29 30 30 30 25 25 27 27 29 33 38 45 46 31 29 35 29 24 27 28 27 27 28 29 30 30 30 30 29 31 34 34 35 35 35 35 34 34 35 34 34 nan
nan nan nan nan nan nan nan nan nan nan nan nan nan nan nan nan nan nan nan nan nan nan nan nan nan nan nan nan nan nan nan nan nan nan nan nan nan 31 29 29 30 31 29 26 29 31 32 31 28 28 31 30 31 38 43 41 40 36 34 35 30 28 29 29 28 28 30 32 32 30 32 35 33 35 35 33 35 35 34 35 34 34 34 35 35 nan
nan nan nan nan nan nan nan nan nan nan nan nan nan nan nan nan nan nan nan nan nan nan nan nan nan nan nan nan nan nan nan nan nan nan nan nan nan 29 28 28 29 29 28 27 28 31 33 32 30 30 32 31 38 42 39 38 40 40 37 32 30 29 29 29 29 30 32 32 31 30 34 35 35 36 35 33 35 nan nan 34 34 34 34 nan nan nan
nan nan nan nan nan nan nan nan nan nan nan nan nan nan nan nan nan nan nan nan nan nan nan nan nan nan nan nan nan nan nan nan nan nan nan nan 28 27 28 27 26 26 27 26 27 30 31 31 32 32 32 36 42 39 37 38 42 42 35 29 26 26 27 28 28 28 30 31 32 33 33 32 33 34 32 33 36 nan nan 34 34 32 30 nan nan nan
nan nan nan nan nan nan nan nan nan nan nan nan nan nan nan nan nan nan nan nan nan nan nan nan nan nan nan nan nan nan nan nan nan nan nan nan 26 25 25 24 25 27 26 26 26 27 28 28 30 31 33 37 39 36 35 39 41 38 33 27 26 28 27 27 27 28 30 32 34 33 26 28 31 31 31 33 34 nan nan 33 32 29 27 nan nan nan
27 nan nan nan nan nan nan nan nan nan nan nan nan nan nan nan nan nan nan nan nan nan nan nan nan nan nan nan nan nan nan nan nan nan nan nan 22 23 24 24 25 26 24 25 24 25 26 28 28 29 32 35 38 35 33 40 40 36 32 29 27 26 26 26 26 27 32 34 33 27 26 29 30 30 30 31 32 32 32 32 32 29 28 nan nan nan
25 nan nan nan nan nan nan nan nan nan nan nan nan nan nan nan nan nan nan nan nan nan nan nan nan nan nan nan nan nan nan nan nan nan nan nan nan nan nan 25 26 26 25 25 23 24 26 28 28 28 32 37 37 35 35 39 38 36 35 28 26 26 27 27 28 29 33 33 28 26 28 28 27 28 29 29 30 33 33 33 34 32 nan nan nan nan
nan nan nan nan nan nan nan nan nan nan nan nan nan nan nan nan nan nan nan nan nan nan nan nan nan nan nan nan nan nan nan nan nan nan nan nan nan nan nan 26 27 25 23 22 23 26 29 29 28 30 34 38 37 37 36 39 37 38 36 28 25 28 28 28 29 31 34 30 26 26 29 30 28 27 29 30 31 32 33 33 32 32 30 nan nan nan
nan nan nan nan nan nan nan nan nan nan nan nan nan nan nan nan nan nan nan nan nan nan nan nan nan nan nan nan nan nan nan nan nan nan nan nan nan nan nan 28 27 24 23 23 25 29 31 30 30 30 34 37 37 36 36 37 35 37 34 28 27 28 27 28 31 32 31 26 27 28 32 33 30 28 29 30 30 32 32 31 30 30 28 nan nan nan
nan nan nan nan nan nan nan nan nan nan nan nan nan nan nan nan nan nan nan nan nan nan nan nan nan nan nan nan nan nan nan nan nan nan nan nan nan nan nan 29 26 24 24 24 28 31 32 31 31 32 34 36 37 36 37 36 33 34 34 30 30 29 30 28 30 32 32 31 31 30 31 31 29 28 30 29 30 29 29 nan nan 27 26 nan nan nan
nan nan nan nan nan nan nan nan nan nan nan nan nan nan nan nan nan nan nan nan nan nan nan nan nan nan nan nan nan nan nan nan nan nan nan nan nan nan 27 26 26 25 27 28 31 33 32 31 31 32 34 37 37 36 37 33 30 34 32 30 29 29 30 30 29 30 31 31 29 28 28 28 27 28 29 28 28 27 nan nan nan 26 nan nan nan nan
nan 16 nan nan nan nan nan nan nan nan nan nan nan nan nan nan nan nan nan nan nan nan nan nan nan nan nan nan nan nan nan nan nan nan nan nan nan nan nan 30 28 26 28 29 32 33 31 31 32 32 34 35 38 38 37 33 31 33 30 29 28 27 27 28 29 29 31 31 28 27 26 26 25 27 27 28 27 nan 24 25 nan nan nan nan nan nan
nan nan nan nan nan nan nan nan nan nan nan nan nan nan nan nan nan nan nan nan nan nan nan nan nan nan nan nan nan nan nan nan nan nan nan nan nan nan 30 31 30 28 26 28 31 32 32 32 33 32 33 35 38 39 37 30 29 29 27 27 27 27 28 27 28 28 29 28 26 26 27 26 24 26 27 26 nan 23 23 24 23 nan nan nan nan nan
nan nan nan nan nan nan nan nan nan nan nan nan nan nan nan nan nan nan nan nan nan nan nan nan nan nan nan nan nan nan nan nan nan nan nan 24 22 25 29 28 29 29 24 27 30 31 32 32 33 33 33 35 37 38 37 31 27 24 24 26 26 24 26 27 27 26 27 26 25 25 24 24 24 26 25 23 23 22 21 21 nan nan nan nan nan nan
nan nan nan nan nan nan nan nan nan nan nan nan nan nan nan nan nan nan nan nan nan nan nan nan nan nan nan nan nan nan nan nan nan nan nan nan 23 24 27 28 26 24 22 26 29 29 31 31 32 32 33 35 37 36 35 32 28 24 24 26 25 25 26 26 26 26 25 25 24 23 21 22 23 24 23 20 19 20 19 20 19 nan nan nan nan nan
nan nan nan nan nan nan nan nan nan nan nan nan nan nan nan nan nan nan nan nan nan nan nan nan nan nan nan nan nan nan nan nan nan nan nan nan nan nan nan 31 27 23 24 27 29 30 31 31 32 33 33 34 35 33 31 31 28 23 23 24 25 25 25 26 26 26 24 22 22 22 21 21 22 23 20 20 19 20 19 19 nan nan nan nan nan nan
nan nan nan nan nan nan nan nan nan nan nan nan nan nan nan nan nan nan nan nan nan nan nan nan nan nan nan nan nan nan nan nan nan nan nan nan nan 31 34 33 30 26 25 27 29 30 30 30 31 31 31 32 31 30 29 30 27 23 24 23 24 25 26 25 26 26 22 22 22 21 20 22 22 22 21 22 20 20 19 nan 18 17 17 nan nan nan
nan nan nan nan nan nan nan nan nan nan nan nan nan nan nan nan nan nan nan nan nan nan nan nan nan nan nan nan nan nan nan nan nan nan nan nan nan 33 nan 31 25 24 26 28 29 28 28 29 29 30 29 27 26 27 27 28 25 23 23 23 23 24 26 25 26 25 22 21 22 20 21 21 22 21 22 22 20 19 nan nan 16 16 nan nan nan nan
nan nan nan nan nan nan nan nan nan nan nan nan nan nan nan nan nan nan nan nan nan nan nan nan nan nan nan nan nan nan nan nan nan nan nan nan 34 34 33 28 23 25 26 27 26 27 28 28 26 26 25 23 23 22 22 24 22 21 22 23 24 24 25 25 25 24 22 22 21 20 20 20 20 20 21 20 19 16 nan 16 16 nan nan nan nan nan
nan nan nan nan nan nan nan nan nan nan nan nan nan nan nan nan nan nan nan nan nan nan nan nan nan nan nan nan nan nan nan nan 29 29 29 31 30 31 31 26 26 26 26 26 26 26 27 27 25 23 21 20 19 19 20 22 20 20 22 23 23 26 26 23 24 23 21 21 21 20 20 19 19 20 21 20 18 16 nan 16 nan nan nan nan nan nan
nan nan nan nan nan nan nan nan nan nan nan nan nan nan nan nan nan nan nan nan nan nan nan nan nan nan nan nan nan nan nan nan 28 27 29 29 30 30 27 22 23 24 24 24 25 27 26 24 23 21 20 18 19 20 21 22 21 21 22 22 24 27 26 23 23 22 21 21 22 22 20 19 18 18 20 20 19 19 nan nan nan nan nan nan nan nan
nan nan nan nan nan nan nan nan nan nan nan nan nan nan nan nan nan nan nan nan nan nan nan nan nan nan nan nan 30 36 33 nan 30 29 30 29 28 28 25 22 22 23 22 24 25 26 25 23 23 22 21 21 21 24 25 25 24 24 24 24 24 26 25 24 24 23 22 22 23 23 22 21 19 18 19 19 19 20 nan nan nan nan nan nan nan nan
nan nan nan nan nan nan nan nan nan nan nan nan nan nan nan nan nan nan nan nan nan nan nan nan nan nan 29 29 30 31 32 32 32 28 27 27 26 25 23 22 22 23 23 25 26 25 24 23 24 24 25 25 25 26 27 28 27 26 25 25 26 26 25 25 25 24 23 24 24 24 24 22 21 20 20 18 18 nan nan nan nan nan nan nan nan nan
nan nan nan nan nan nan nan nan nan nan nan nan nan nan nan nan nan nan nan nan nan nan nan nan nan nan nan 29 28 28 27 26 26 26 27 27 25 24 23 23 24 25 24 25 25 24 24 23 24 25 26 27 27 27 29 30 30 28 26 25 26 25 26 26 25 26 25 25 25 25 25 24 24 24 22 20 20 nan nan nan nan nan nan nan nan nan
nan 24 nan nan nan nan nan nan nan nan nan nan nan nan nan nan nan nan nan nan nan nan nan nan 34 31 32 27 29 30 27 27 27 26 27 26 26 24 24 25 26 26 25 25 25 25 23 22 23 25 25 25 24 25 28 30 30 28 27 26 25 24 24 25 25 26 26 26 26 27 26 26 26 26 25 23 23 nan 21 20 nan nan nan nan nan nan
20 nan nan nan nan nan nan nan nan nan nan nan nan nan nan nan nan nan nan nan nan nan nan nan 30 28 31 31 31 33 28 28 29 29 30 29 28 26 27 27 27 26 28 27 25 24 21 22 23 22 22 23 22 23 27 27 27 27 28 26 26 24 24 25 24 25 27 27 28 28 29 29 28 26 26 26 25 24 22 21 20 nan nan nan nan nan
nan nan nan nan nan nan nan nan nan nan nan nan nan nan nan nan nan nan nan nan nan nan nan nan nan nan 33 33 33 33 32 29 32 30 30 30 29 29 29 29 29 29 27 27 23 22 22 22 22 22 23 22 22 21 22 22 22 22 27 26 27 24 26 25 26 26 26 27 28 28 29 29 28 28 27 26 26 24 23 22 22 nan nan nan nan nan
nan nan nan nan nan nan nan nan nan nan 33 nan nan nan nan nan nan nan nan nan nan nan nan nan nan nan 31 31 31 31 29 30 32 32 31 30 29 29 30 30 29 28 25 24 24 23 23 22 22 21 22 20 18 15 15 16 17 19 25 26 27 26 25 26 27 28 28 29 29 29 29 29 29 28 27 27 25 25 24 23 24 nan nan nan nan nan
26 27 nan nan nan nan nan nan nan nan nan nan nan nan nan nan nan nan nan nan nan nan nan nan nan nan 30 30 30 29 28 27 29 30 30 29 31 32 32 31 27 27 26 25 24 24 25 24 21 23 23 19 15 14 14 19 19 19 22 23 26 26 26 26 27 28 29 30 29 29 29 30 30 nan nan 27 26 25 25 25 27 nan nan nan nan nan
23 23 nan nan nan nan nan nan nan nan nan nan nan nan nan nan nan nan nan nan nan nan nan nan nan 31 32 31 29 28 28 26 28 31 31 32 33 33 33 31 28 27 28 28 26 27 28 27 25 25 24 21 18 18 22 24 23 22 23 23 24 25 27 26 27 28 29 29 29 29 29 30 31 31 30 29 nan nan 27 28 29 nan nan nan nan nan
18 nan nan nan nan nan nan nan nan nan nan nan nan nan nan nan nan nan nan nan nan nan 30 nan nan nan 32 30 28 27 27 30 31 32 33 34 36 34 34 32 31 28 26 27 28 27 28 27 28 27 27 26 24 26 30 29 30 28 26 25 24 24 25 25 27 29 29 30 30 31 31 30 30 33 33 nan nan nan nan nan nan nan nan nan nan nan
17 nan nan nan nan nan nan nan nan nan nan 25 22 22 nan nan nan nan nan nan 40 34 33 nan nan 31 31 29 29 30 29 32 31 28 28 33 35 34 33 32 32 30 29 29 29 28 29 30 30 28 29 30 32 35 33 33 32 32 30 28 25 24 24 26 28 31 32 32 33 33 33 32 33 34 34 32 29 29 32 34 nan nan nan nan nan nan
nan nan nan nan nan nan nan nan nan nan 28 28 26 nan nan nan nan nan nan 41 39 37 35 nan 31 31 31 30 30 31 32 36 33 30 28 32 33 34 34 33 33 32 31 29 30 30 28 27 28 29 29 32 35 35 35 34 35 34 32 30 29 27 27 30 33 37 38 38 36 36 35 34 33 32 30 28 27 28 31 29 30 nan nan nan nan nan
nan nan nan nan nan nan nan nan nan nan 24 27 25 nan nan nan nan nan 46 42 37 32 32 33 33 31 32 38 38 33 29 26 28 29 27 30 34 34 35 35 33 33 34 35 35 31 30 29 29 29 30 33 35 35 36 36 35 34 33 30 28 29 29 31 36 39 41 40 39 37 35 32 31 30 29 30 30 30 nan 29 31 nan 37 nan nan nan
28 26 nan nan nan nan nan nan nan nan 22 28 nan nan nan nan 36 42 41 42 40 36 34 34 33 33 37 37 38 36 30 27 26 23 22 28 33 35 35 34 35 34 35 35 32 32 31 30 31 31 32 35 37 35 35 35 34 31 31 29 29 30 31 34 36 39 39 nan 31 30 29 28 29 30 30 nan nan 32 nan nan 34 nan nan nan nan nan
34 nan nan nan 28 nan nan nan nan 24 26 27 24 28 33 36 30 31 37 38 39 39 38 36 35 35 35 35 37 38 33 29 27 24 25 28 32 34 35 34 34 35 34 32 32 33 32 32 32 34 36 38 37 35 33 33 31 31 29 30 30 31 33 34 36 37 36 33 32 nan 33 32 32 31 33 36 36 nan nan nan nan nan nan nan nan nan
29 nan nan 25 27 21 nan 20 21 22 28 30 30 30 31 32 32 35 35 37 39 40 39 38 38 40 37 38 37 37 36 34 33 31 29 29 30 32 33 33 33 34 34 33 34 34 33 35 37 37 38 36 35 33 31 29 30 30 28 29 30 31 32 33 36 37 36 35 35 36 36 35 33 31 31 32 33 nan nan nan nan nan nan nan nan nan
23 24 26 25 nan 18 21 20 19 25 29 28 29 29 28 29 29 28 30 35 40 39 39 39 38 38 40 38 39 39 38 37 34 33 33 31 31 32 33 34 35 35 34 33 36 34 35 38 37 37 35 32 30 29 28 27 28 29 28 29 28 30 32 33 36 38 36 35 35 35 35 35 31 30 30 31 nan nan nan nan nan nan nan nan nan nan
nan nan 24 nan 21 19 nan nan 27 22 23 29 29 28 28 29 31 29 31 37 40 40 40 40 38 37 37 40 38 35 34 38 39 37 35 34 33 33 32 32 34 35 35 35 36 33 35 36 32 30 30 29 28 27 27 28 28 29 30 32 32 32 33 35 37 38 37 37 37 36 35 36 33 33 nan nan nan nan nan nan nan nan nan nan nan nan
nan nan nan nan nan 17 21 26 25 26 29 31 29 29 30 30 33 33 32 35 39 42 41 39 37 38 39 40 38 33 32 37 40 40 39 36 34 32 32 33 35 35 35 34 34 29 32 31 29 28 29 29 29 29 29 30 31 31 32 34 35 36 36 38 39 39 39 40 39 39 39 38 40 40 37 nan nan 34 nan nan nan nan nan nan nan nan
nan 23 nan nan 22 nan 21 23 nan 31 31 32 32 34 34 34 32 31 32 34 38 42 44 46 47 45 44 42 42 40 38 38 37 38 40 39 36 36 36 34 34 33 33 32 31 27 30 29 29 31 32 32 32 33 32 34 37 39 38 36 37 37 39 40 42 41 43 43 42 42 42 42 42 40 38 36 34 33 nan nan nan nan nan nan nan nan
17 nan nan nan nan nan nan 30 34 nan 28 32 36 36 34 32 34 34 34 35 36 38 42 44 46 47 48 48 47 45 44 44 43 41 40 40 40 39 40 38 36 34 33 33 32 30 34 32 32 34 36 37 36 37 37 38 38 38 38 39 41 42 43 45 45 45 45 45 45 45 45 44 44 42 40 39 37 nan nan 41 nan nan nan nan nan nan
nan 20 21 19 nan nan 24 nan 27 27 31 33 33 34 37 37 33 34 37 38 36 35 36 38 40 42 45 46 47 47 46 46 46 46 46 45 45 43 42 39 38 35 35 35 33 34 35 33 33 36 37 40 41 39 40 41 41 41 41 41 43 45 46 47 46 45 45 46 45 46 45 45 45 nan 41 40 nan nan nan nan nan nan nan nan nan nan
Wind_Direction
nan nan nan nan nan nan nan nan nan nan nan nan nan nan nan nan nan nan nan nan nan nan nan nan nan nan nan nan nan nan nan nan nan nan nan nan nan nan 248 250 253 254 256 257 261 267 270 270 265 259 259 256 258 261 260 263 265 264 264 264 268 267 269 271 275 281 284 284 282 281 282 284 283 283 281 279 279 278 274 275 275 276 272 271 267 252
nan nan nan nan nan nan nan nan nan nan nan nan nan nan nan nan nan nan nan nan nan nan nan nan nan nan nan nan nan nan nan nan nan nan nan nan nan nan 251 254 254 251 250 256 256 262 266 263 262 260 253 257 264 260 261 261 260 260 261 264 265 266 270 275 279 282 283 283 282 283 284 283 282 282 282 283 274 264 271 274 272 259 251 248 243 238
nan nan nan nan nan nan nan nan nan nan nan nan nan nan nan nan nan nan nan nan nan nan nan nan nan nan nan nan nan nan nan nan nan nan nan nan nan 243 249 253 251 250 253 255 259 263 267 267 266 259 252 256 260 257 260 259 259 258 258 263 267 267 273 276 280 281 282 281 281 282 281 281 280 276 277 277 275 282 275 266 259 262 259 252 250 240
nan nan nan nan nan nan nan nan nan nan nan nan nan nan nan nan nan nan nan nan nan nan nan nan nan nan nan nan nan nan nan nan nan nan nan nan nan 245 250 254 250 251 256 260 264 265 264 265 263 257 250 251 251 252 256 258 262 257 255 261 266 270 274 275 278 279 281 282 282 279 276 279 276 276 275 267 277 273 274 270 269 262 259 256 252 246
nan nan nan nan nan nan nan nan nan nan nan nan nan nan nan nan nan nan nan nan nan nan nan nan nan nan nan nan nan nan nan nan nan nan nan nan nan 241 244 252 253 250 253 256 261 262 262 264 263 254 253 252 249 252 256 258 259 253 259 261 268 273 275 275 278 281 282 280 282 282 282 280 275 270 274 279 278 278 273 272 270 266 257 254 250 253
nan nan nan nan nan nan nan nan nan nan nan nan nan nan nan nan nan nan nan nan nan nan nan nan nan nan nan nan nan nan nan nan nan nan nan nan nan 240 243 246 252 251 248 249 256 260 262 259 254 252 253 253 249 252 253 258 258 257 254 261 272 274 276 278 282 285 284 285 285 286 285 283 281 276 274 277 279 279 277 274 271 271 263 257 254 249
nan nan nan nan nan nan nan nan nan nan nan nan nan nan nan nan nan nan nan nan nan nan nan nan nan nan nan nan nan nan nan nan nan nan nan nan 237 237 nan nan 250 251 249 243 249 253 256 255 253 253 254 253 252 250 251 253 255 256 261 269 276 276 277 282 288 289 286 287 285 283 281 278 278 273 268 267 270 273 272 273 273 272 268 263 256 255
nan nan nan nan nan nan nan nan nan nan nan nan nan nan nan nan nan nan nan nan nan nan nan nan nan nan nan nan nan nan nan nan nan nan 237 238 238 240 242 247 253 255 254 247 251 254 254 257 256 257 255 252 249 249 249 251 245 253 264 257 270 272 275 284 293 294 293 287 284 280 278 276 273 275 272 266 269 269 269 269 269 270 269 260 256 254
nan nan nan nan nan nan nan nan nan nan nan nan nan nan nan nan nan nan nan nan nan nan nan nan nan nan nan nan nan nan nan nan nan nan nan nan 242 244 244 248 254 258 259 254 250 254 255 258 257 255 256 254 254 253 252 251 260 269 275 275 260 267 285 289 292 288 291 286 283 279 275 274 265 267 267 269 268 267 269 270 269 270 268 261 256 nan
nan nan nan nan nan nan nan nan nan nan nan nan nan nan nan nan nan nan nan nan nan nan nan nan nan nan nan nan nan nan nan nan nan nan nan nan nan 248 249 249 252 251 252 250 250 253 254 256 255 253 255 255 254 253 255 263 265 265 271 272 278 282 286 287 290 292 288 285 282 280 273 267 266 265 263 268 269 268 270 270 268 266 265 265 262 nan
nan nan nan nan nan nan nan nan nan nan nan nan nan nan nan nan nan nan nan nan nan nan nan nan nan nan nan nan nan nan nan nan nan nan nan nan nan 250 249 250 251 252 252 248 249 251 253 255 255 255 257 258 256 258 262 261 265 270 275 279 288 292 291 296 297 294 294 289 285 278 272 272 270 266 266 272 274 nan nan 268 268 268 267 nan nan nan
nan nan nan nan nan nan nan nan nan nan nan nan nan nan nan nan nan nan nan nan nan nan nan nan nan nan nan nan nan nan nan nan nan nan nan nan 250 250 250 249 251 253 250 249 248 251 254 256 255 255 258 259 260 263 260 261 264 268 276 289 299 292 289 289 287 289 291 288 286 275 273 272 271 270 271 277 280 nan nan 270 270 270 269 nan nan nan
nan nan nan nan nan nan nan nan nan nan nan nan nan nan nan nan nan nan nan nan nan nan nan nan nan nan nan nan nan nan nan nan nan nan nan nan 251 252 255 255 251 249 249 246 246 249 252 254 255 258 261 261 260 263 264 265 265 271 280 292 290 286 286 291 294 295 291 285 277 274 285 277 271 269 273 275 278 nan nan 272 272 274 272 nan nan nan
181 nan nan nan nan nan nan nan nan nan nan nan nan nan nan nan nan nan nan nan nan nan nan nan nan nan nan nan nan nan nan nan nan nan nan nan 251 254 255 254 252 249 249 245 245 248 250 251 253 258 260 261 258 262 260 265 267 271 275 275 280 289 293 298 301 296 291 280 279 287 279 276 272 271 276 276 279 280 277 274 273 270 270 nan nan nan
189 nan nan nan nan nan nan nan nan nan nan nan nan nan nan nan nan nan nan nan nan nan nan nan nan nan nan nan nan nan nan nan nan nan nan nan nan nan nan 250 253 250 244 241 242 245 248 252 255 254 256 258 259 264 260 262 266 272 276 287 296 299 303 305 301 296 288 288 299 293 289 278 272 272 274 276 275 276 276 276 275 273 nan nan nan nan
nan nan nan nan nan nan nan nan nan nan nan nan nan nan nan nan nan nan nan nan nan nan nan nan nan nan nan nan nan nan nan nan nan nan nan nan nan nan nan 240 244 246 242 238 240 243 248 251 253 251 254 257 262 267 261 268 267 275 282 295 301 303 306 304 302 296 288 298 297 289 286 278 273 269 272 273 269 274 275 273 273 272 267 nan nan nan
nan nan nan nan nan nan nan nan nan nan nan nan nan nan nan nan nan nan nan nan nan nan nan nan nan nan nan nan nan nan nan nan nan nan nan nan nan nan nan 234 240 241 237 233 236 241 249 249 251 251 257 258 264 263 264 266 268 277 283 291 300 303 301 304 299 294 292 296 291 291 287 283 283 285 285 286 287 282 274 269 268 267 265 nan nan nan
nan nan nan nan nan nan nan nan nan nan nan nan nan nan nan nan nan nan nan nan nan nan nan nan nan nan nan nan nan nan nan nan nan nan nan nan nan nan nan 232 235 235 233 232 236 243 247 248 252 253 257 263 266 270 267 271 276 282 283 296 306 306 303 301 301 302 300 300 295 290 289 292 294 296 294 293 291 281 274 nan nan 267 267 nan nan nan
nan nan nan nan nan nan nan nan nan nan nan nan nan nan nan nan nan nan nan nan nan nan nan nan nan nan nan nan nan nan nan nan nan nan nan nan nan nan 233 237 235 229 225 227 234 240 243 246 252 253 260 263 266 267 263 269 275 283 285 298 306 309 306 305 304 305 303 300 289 285 290 296 295 295 296 296 290 283 nan nan nan 273 nan nan nan nan
nan 169 nan nan nan nan nan nan nan nan nan nan nan nan nan nan nan nan nan nan nan nan nan nan nan nan nan nan nan nan nan nan nan nan nan nan nan nan nan 236 233 223 219 222 234 240 244 248 253 258 262 265 269 267 265 270 277 287 289 298 300 300 302 304 305 305 303 295 286 286 291 296 298 300 301 300 292 nan 285 283 nan nan nan nan nan nan
nan nan nan nan nan nan nan nan nan nan nan nan nan nan nan nan nan nan nan nan nan nan nan nan nan nan nan nan nan nan nan nan nan nan nan nan nan nan 234 234 233 232 224 227 236 241 245 250 252 256 259 263 267 267 264 267 275 284 287 292 298 299 303 305 303 305 297 287 289 295 299 301 300 305 304 297 nan 284 287 286 281 nan nan nan nan nan
nan nan nan nan nan nan nan nan nan nan nan nan nan nan nan nan nan nan nan nan nan nan nan nan nan nan nan nan nan nan nan nan nan nan nan 235 230 228 231 233 232 229 228 231 238 243 246 251 255 258 259 263 266 270 271 271 272 277 284 289 295 298 300 303 302 298 291 285 288 298 300 302 305 307 306 297 291 288 286 286 nan nan nan nan nan nan
nan nan nan nan nan nan nan nan nan nan nan nan nan nan nan nan nan nan nan nan nan nan nan nan nan nan nan nan nan nan nan nan nan nan nan nan 230 231 233 238 232 230 229 235 240 245 248 253 258 261 266 267 267 272 277 278 280 282 286 291 296 297 300 300 298 290 283 288 293 298 298 306 310 311 309 298 293 295 294 290 290 nan nan nan nan nan
nan nan nan nan nan nan nan nan nan nan nan nan nan nan nan nan nan nan nan nan nan nan nan nan nan nan nan nan nan nan nan nan nan nan nan nan nan nan nan 236 237 229 231 237 238 241 245 251 255 258 262 265 268 274 279 280 280 282 286 292 295 298 296 298 295 291 286 289 295 298 302 306 310 311 305 294 296 302 299 296 nan nan nan nan nan nan
nan nan nan nan nan nan nan nan nan nan nan nan nan nan nan nan nan nan nan nan nan nan nan nan nan nan nan nan nan nan nan nan nan nan nan nan nan 228 233 230 226 227 232 238 240 245 249 254 259 262 264 267 275 280 281 284 287 291 295 294 294 295 298 298 291 292 293 295 296 300 301 303 306 304 294 291 296 302 299 nan 300 302 306 nan nan nan
nan nan nan nan nan nan nan nan nan nan nan nan nan nan nan nan nan nan nan nan nan nan nan nan nan nan nan nan nan nan nan nan nan nan nan nan nan 232 nan 233 226 225 233 240 243 247 253 254 257 261 267 271 276 285 285 286 289 293 294 293 295 296 298 295 288 290 296 293 295 299 300 301 303 298 292 291 294 298 nan nan 302 306 nan nan nan nan
nan nan nan nan nan nan nan nan nan nan nan nan nan nan nan nan nan nan nan nan nan nan nan nan nan nan nan nan nan nan nan nan nan nan nan nan 232 232 232 232 228 226 233 241 242 244 249 253 260 267 273 277 286 281 274 284 284 288 293 293 293 290 287 286 286 289 294 294 297 296 298 299 295 290 289 289 289 290 nan 296 300 nan nan nan nan nan
nan nan nan nan nan nan nan nan nan nan nan nan nan nan nan nan nan nan nan nan nan nan nan nan nan nan nan nan nan nan nan nan 221 222 223 227 228 230 230 223 228 228 232 234 239 246 250 254 258 267 275 282 280 285 267 274 281 288 290 294 290 286 275 272 280 289 291 291 293 293 294 295 289 285 285 285 287 290 nan 292 nan nan nan nan nan nan
nan nan nan nan nan nan nan nan nan nan nan nan nan nan nan nan nan nan nan nan nan nan nan nan nan nan nan nan nan nan nan nan 221 223 225 227 227 228 231 228 227 231 236 239 242 244 248 254 259 272 278 276 273 276 269 274 279 277 289 290 291 282 287 286 286 289 293 291 290 289 287 290 294 283 284 287 289 289 nan nan nan nan nan nan nan nan
nan nan nan nan nan nan nan nan nan nan nan nan nan nan nan nan nan nan nan nan nan nan nan nan nan nan nan nan 211 214 205 nan 221 218 219 222 223 226 228 227 227 230 236 240 243 246 248 255 262 271 275 275 283 284 279 275 280 279 286 286 291 288 287 289 288 290 291 290 286 284 284 289 289 292 287 291 291 288 nan nan nan nan nan nan nan nan
nan nan nan nan nan nan nan nan nan nan nan nan nan nan nan nan nan nan nan nan nan nan nan nan nan nan 209 206 210 211 204 210 217 219 221 220 220 223 223 224 224 228 234 238 241 246 251 258 265 271 274 278 282 284 280 276 274 275 283 289 292 289 287 289 288 289 292 288 286 287 288 289 290 285 285 286 284 nan nan nan nan nan nan nan nan nan
nan nan nan nan nan nan nan nan nan nan nan nan nan nan nan nan nan nan nan nan nan nan nan nan nan nan nan 211 218 210 204 208 215 217 217 215 220 218 217 222 225 229 233 237 242 249 257 266 271 277 281 281 282 279 271 274 277 277 284 289 291 289 285 286 290 291 291 290 289 291 291 288 290 281 283 285 286 nan nan nan nan nan nan nan nan nan
nan 153 nan nan nan nan nan nan nan nan nan nan nan nan nan nan nan nan nan nan nan nan nan nan 197 204 202 203 209 212 204 203 206 208 211 213 218 212 213 219 223 227 232 239 246 251 261 270 278 280 280 279 279 276 277 279 277 278 281 285 287 286 286 286 288 291 292 293 296 296 290 284 279 279 282 284 284 nan 284 287 nan nan nan nan nan nan
147 nan nan nan nan nan nan nan nan nan nan nan nan nan nan nan nan nan nan nan nan nan nan nan 194 200 201 200 200 206 202 198 202 203 202 206 212 210 213 216 221 225 231 234 243 252 264 266 261 266 274 273 275 274 276 277 276 270 272 274 276 283 278 281 286 289 292 294 296 295 289 282 280 280 279 280 281 281 285 289 294 nan nan nan nan nan
nan nan nan nan nan nan nan nan nan nan nan nan nan nan nan nan nan nan nan nan nan nan nan nan nan nan 200 192 196 199 202 197 199 201 205 205 208 209 215 217 220 227 234 242 248 254 262 267 268 274 276 280 278 277 278 280 269 265 271 273 274 275 278 287 291 289 290 291 291 291 287 283 280 280 278 278 280 283 287 291 293 nan nan nan nan nan
nan nan nan nan nan nan nan nan nan nan 211 nan nan nan nan nan nan nan nan nan nan nan nan nan nan nan 191 190 195 199 199 199 202 199 200 202 205 208 215 217 221 229 234 240 251 255 260 264 267 275 277 266 262 277 284 289 285 280 274 276 278 281 285 287 286 283 282 280 280 284 284 282 280 279 280 281 283 287 290 293 294 nan nan nan nan nan
134 140 nan nan nan nan nan nan nan nan nan nan nan nan nan nan nan nan nan nan nan nan nan nan nan nan 184 185 192 199 201 198 204 201 194 199 204 208 214 217 221 230 235 242 246 251 256 258 260 260 260 259 261 272 283 288 289 286 282 282 278 281 283 282 279 276 275 274 276 278 280 281 282 nan nan 285 286 290 295 295 295 nan nan nan nan nan
126 131 nan nan nan nan nan nan nan nan nan nan nan nan nan nan nan nan nan nan nan nan nan nan nan 187 182 184 195 201 200 196 203 201 196 200 205 211 214 223 224 230 238 243 246 249 253 257 261 256 258 260 266 273 273 284 289 290 291 286 278 279 277 278 272 270 270 272 274 275 277 281 284 285 286 285 nan nan 292 292 289 nan nan nan nan nan
133 nan nan nan nan nan nan nan nan nan nan nan nan nan nan nan nan nan nan nan nan nan 185 nan nan nan 180 184 197 199 193 194 204 197 197 200 205 211 219 224 231 235 240 247 251 255 257 257 261 260 257 260 263 264 273 282 287 287 289 285 282 279 278 280 274 270 268 268 270 272 275 280 284 286 286 nan nan nan nan nan nan nan nan nan nan nan
139 nan nan nan nan nan nan nan nan nan nan 205 207 197 nan nan nan nan nan nan 194 185 187 nan nan 186 184 183 197 205 191 195 208 208 198 201 206 214 220 228 234 241 246 249 252 256 258 261 262 262 263 264 265 268 279 284 286 286 285 287 282 279 276 275 275 270 268 268 270 271 275 278 281 282 285 287 290 291 286 284 nan nan nan nan nan nan
nan nan nan nan nan nan nan nan nan nan 201 200 194 nan nan nan nan nan nan 192 184 187 184 nan 192 190 187 187 189 196 192 194 205 216 213 210 214 218 222 226 235 243 249 254 253 253 256 260 262 264 268 267 272 275 279 282 285 287 287 286 283 280 275 270 267 267 268 268 271 274 277 278 281 283 284 286 290 288 282 287 289 nan nan nan nan nan
nan nan nan nan nan nan nan nan nan nan 190 179 187 nan nan nan nan nan 189 189 184 183 189 193 199 196 194 195 200 201 199 197 204 212 217 215 218 223 229 234 237 242 247 249 250 253 257 261 263 267 268 269 274 277 279 281 282 283 284 284 284 282 280 276 266 261 258 262 271 272 273 275 276 280 282 285 292 293 nan 290 282 nan 273 nan nan nan
157 146 nan nan nan nan nan nan nan nan 180 174 nan nan nan nan 189 186 192 191 189 196 196 200 200 203 202 202 203 204 212 211 211 215 220 220 221 227 232 237 242 246 251 255 257 256 257 261 267 268 270 272 276 279 280 284 285 284 283 283 284 279 279 276 274 270 268 nan 269 270 273 277 280 282 284 nan nan 293 nan nan 283 nan nan nan nan nan
163 nan nan nan 157 nan nan nan nan 185 185 174 170 193 195 196 195 190 191 196 195 194 197 201 204 202 205 206 205 207 211 218 219 223 226 224 227 230 235 237 241 245 246 250 252 256 261 262 267 269 272 274 278 280 282 282 283 282 281 281 279 275 273 275 278 280 280 281 281 nan 281 284 285 284 282 284 284 nan nan nan nan nan nan nan nan nan
167 nan nan 158 166 168 nan 178 182 186 183 193 198 201 198 197 194 194 193 194 193 193 195 199 204 201 205 206 207 208 209 212 222 223 227 229 231 232 235 239 243 246 247 250 255 257 260 264 268 270 273 275 281 281 283 283 283 282 281 279 279 279 278 280 281 281 282 286 284 283 285 285 285 285 285 286 287 nan nan nan nan nan nan nan nan nan
168 165 158 157 nan 192 190 180 180 188 192 196 195 193 195 194 198 195 197 194 191 193 194 197 203 203 203 203 206 208 211 213 219 224 227 230 232 235 236 240 244 247 252 256 262 266 267 268 271 273 273 275 277 276 278 281 284 285 281 280 279 280 277 281 279 277 278 282 282 283 284 287 288 288 288 289 nan nan nan nan nan nan nan nan nan nan
nan nan 171 nan 159 159 nan nan 179 195 190 194 194 195 193 192 197 198 196 194 194 195 197 200 202 202 200 207 212 213 212 214 219 224 231 233 235 234 237 243 245 250 254 259 263 265 266 270 271 275 275 275 273 273 274 276 280 283 282 281 282 281 281 283 283 281 279 279 281 282 285 287 288 290 nan nan nan nan nan nan nan nan nan nan nan nan
nan nan nan nan nan 179 189 186 193 188 192 190 189 189 193 198 200 199 198 197 197 197 198 200 202 203 203 206 212 219 218 219 219 223 229 233 235 240 240 243 247 250 253 258 261 262 265 268 272 275 277 276 274 274 278 280 282 285 285 285 286 284 285 284 285 284 284 284 284 284 285 285 286 291 292 nan nan 290 nan nan nan nan nan nan nan nan
nan 159 nan nan 183 nan 195 178 nan 203 196 198 194 192 192 194 199 200 200 201 201 204 205 205 205 207 206 208 210 215 220 223 225 227 228 231 238 241 243 244 247 251 254 259 260 260 264 265 271 276 275 275 275 275 277 281 279 278 285 289 291 291 290 287 288 287 285 282 281 280 282 283 286 288 288 288 287 286 nan nan nan nan nan nan nan nan
174 nan nan nan nan nan nan 183 179 nan 193 192 189 191 195 199 200 202 205 204 199 200 205 208 211 211 211 211 216 219 221 221 223 226 233 236 237 238 243 247 247 250 253 253 257 259 260 265 271 273 273 272 274 275 278 281 282 284 288 289 287 287 286 286 287 288 286 284 284 284 285 287 289 288 288 288 286 nan nan 259 nan nan nan nan nan nan
nan 182 186 195 nan nan 187 nan 194 191 194 187 190 194 196 197 201 205 204 204 206 206 208 211 212 213 214 215 216 220 221 222 222 225 230 235 239 239 243 249 250 250 252 254 258 262 265 268 272 272 272 272 274 275 277 279 281 284 287 288 287 286 286 288 288 288 288 288 289 288 289 288 288 nan 290 290 nan nan nan nan nan nan nan nan nan nan